[[{"header":{"parameterUnit":"m.s-1","parameterCategory":2,"la1":30.2991,"la2":30.254,"lo1":-89.0895,"lo2":-89.0444,"dy":0.0017,"dx":0.0017,"nx":28,"ny":28,"refTime":"2025-03-08T03:00:00:Z","depth":"0","parameterNumber":2,"parameterNumberName":"U-component_of_CURRENTS"},"data":[0,0,0,0,0,0,0,0,0,0,0,0,0,0,0,0,0,0,0,0,0,0,0,0,0,0,0,0,0,0,0,0,0,0,0,0,0,0,0,0,0,0,0,0,0,0,0,0,0,0,0,0,0,0,0,0,0,0,0.3161,0.3162,0,0.3231,0.3232,0.3232,0.323,0.323,0.3229,0.3229,0.3264,0.3266,0.3267,0,0,0,0,0,0,0,0,0,0,0,0,0,0.3041,0.3043,0.3161,0.3162,0.3163,0.3231,0.3232,0.3232,0.323,0.323,0.3229,0.3229,0.3264,0.3266,0.3267,0,0,0,0,0,0,0,0,0,0,0,0,0,0.3096,0.3043,0.316,0.3174,0.3177,0.3231,0.3232,0.3232,0.323,0.323,0.3229,0.3228,0.3263,0.3265,0.3268,0.3296,0,0,0.3274,0.3275,0,0,0,0,0,0,0,0,0.3093,0.3099,0.3171,0.3174,0.3176,0.3226,0.3203,0.3254,0.3231,0.3205,0.3229,0.3228,0.3252,0.3255,0.3263,0.3298,0.3299,0.3274,0.3276,0.3276,0.3277,0,0,0,0,0,0,0,0.3089,0.3097,0.3184,0.3173,0.3176,0.3183,0.3189,0.3212,0.3227,0.3207,0.3208,0.3224,0.3252,0.3261,0.3264,0.33,0.3274,0.3276,0.3277,0.3278,0.341,0.3412,0,0,0,0,0,0,0.309,0.3093,0.3181,0.3186,0.3137,0.3186,0.3193,0.3206,0.3228,0.3232,0.3225,0.3224,0.3258,0.3262,0.3265,0.3325,0.3276,0.3278,0.328,0.3408,0.3411,0.3413,0,0,0,0,0,0,0.3087,0.3097,0.3179,0.3145,0.3157,0.3189,0.3204,0.3208,0.3224,0.3243,0.3245,0.3238,0.3258,0.3262,0.3307,0.3325,0.3279,0.3281,0.3405,0.3409,0.3412,0.3428,0,0,0,0,0,0,0.3084,0.3096,0.3105,0.3145,0.3159,0.3221,0.3206,0.321,0.3237,0.3237,0.3255,0.3257,0.3257,0.3304,0.3309,0.3327,0.3283,0.3402,0.3407,0.3411,0.3424,0.3431,0.3437,0,0,0,0,0,0.3079,0.3099,0.3105,0.3116,0.317,0.3223,0.3231,0.3247,0.3239,0.3256,0.3274,0.3257,0.3334,0.3307,0.3313,0.3332,0.34,0.3406,0.341,0.3422,0.343,0.3437,0,0,0,0,0,0,0.3046,0.3102,0.3109,0.3143,0.3184,0.3225,0.3244,0.3255,0.3282,0.3279,0.3285,0.329,0.3339,0.3343,0.3314,0.3387,0.3365,0.3371,0.3371,0.3379,0.3386,0.3441,0.3285,0,0,0,0,0,0.3046,0.3078,0.3128,0.3156,0.3176,0.321,0.3232,0.3248,0.328,0.329,0.3307,0.3331,0.3365,0.3376,0.3408,0.3444,0.3504,0.3463,0.347,0.3475,0.3528,0.364,0.3662,0.3429,0.3429,0.3429,0,0,0.3042,0.3077,0.3095,0.3152,0.318,0.322,0.322,0.3263,0.3297,0.3292,0.3338,0.3358,0.3385,0.3429,0.345,0.343,0.3568,0.3481,0.3485,0.3536,0.3648,0.367,0.3691,0.3433,0.3432,0.3432,0,0,0.3054,0.3081,0.3111,0.3149,0.3204,0.3232,0.3248,0.3297,0.3319,0.3364,0.338,0.3428,0.3452,0.3496,0.3513,0.3581,0.3605,0.3572,0.3637,0.3743,0.3764,0.3783,0.3864,0.3891,0.3564,0.3564,0.3564,0,0.3043,0.3092,0.3128,0.3167,0.3208,0.3239,0.3284,0.3314,0.3372,0.3419,0.338,0.3494,0.3494,0.3595,0.3609,0.3597,0.3657,0.3593,0.3752,0.3772,0.3792,0.3871,0.39,0.3565,0.3565,0.3565,0.3565,0,0.3079,0.312,0.3143,0.3205,0.325,0.3297,0.3351,0.3399,0.3418,0.346,0.3561,0.358,0.3662,0.3648,0.364,0.3779,0.3777,0.3751,0.3729,0.3816,0.3894,0.3923,0.3567,0.3567,0.3566,0.3566,0,0,0.3051,0.315,0.3155,0.3205,0.328,0.3328,0.3396,0.3493,0.3567,0.3602,0.3714,0.3755,0.3792,0.3822,0.3827,0.3901,0.4048,0.3882,0.3887,0.3959,0.4286,0.4217,0.4242,0.4047,0.4053,0.4057,0.4277,0,0.3069,0.3154,0.3197,0.3285,0.3345,0.3408,0.3479,0.3569,0.3633,0.3744,0.3802,0.3893,0.3848,0.389,0.3968,0.4047,0.4133,0.3992,0.42,0.4207,0.413,0.4277,0.4117,0.4295,0.4306,0.4311,0.4314,0,0.3091,0.3154,0.3243,0.3368,0.3398,0.3449,0.3602,0.3671,0.3826,0.388,0.3996,0.4047,0.4191,0.4113,0.4327,0.4242,0.4289,0.4324,0.4332,0.4299,0.4195,0.4218,0.4348,0.4199,0.436,0.4356,0.4353,0,0.3094,0.3191,0.3271,0.331,0.3443,0.3503,0.3575,0.3721,0.3815,0.3989,0.4077,0.4239,0.4321,0.4442,0.4502,0.4443,0.4718,0.4637,0.4627,0.4621,0.4548,0.4525,0.4562,0.4812,0.4811,0.4811,0.481,0,0.3134,0.3202,0.3276,0.3334,0.3451,0.352,0.3663,0.3765,0.3915,0.4034,0.4156,0.4275,0.4408,0.4553,0.4605,0.4727,0.4811,0.4708,0.4704,0.4542,0.4518,0.4432,0.4359,0.4819,0.4817,0.4815,0.4814,0,0.3188,0.3219,0.3328,0.3436,0.347,0.3565,0.3713,0.3787,0.3942,0.4104,0.4165,0.4357,0.4546,0.4671,0.4859,0.4842,0.4832,0.4969,0.4757,0.4724,0.454,0.4474,0.4451,0.4315,0.5028,0.5028,0.5028,0,0.3258,0.3305,0.3404,0.3429,0.3485,0.3603,0.3654,0.3804,0.3868,0.4135,0.4188,0.4433,0.4562,0.4838,0.4893,0.5031,0.4854,0.4912,0.4768,0.4572,0.4497,0.4311,0.4184,0.4673,0.467,0.4667,0.4666,0,0.3378,0.3379,0.3434,0.3478,0.3518,0.3589,0.3663,0.3726,0.3873,0.4012,0.4162,0.4305,0.4584,0.4658,0.484,0.4886,0.4666,0.4865,0.474,0.4318,0.4049,0.3899,0.4465,0.4645,0.4647,0.4648,0.4649,0.465,0.3435,0.3463,0.3453,0.3491,0.3517,0.3496,0.3514,0.357,0.3669,0.3798,0.4015,0.4164,0.4396,0.4644,0.4659,0.4567,0.454,0.4425,0.4396,0.4251,0.4014,0.4526,0.4635,0.4637,0.4638,0.464,0.4641,0,0.3436,0.3412,0.3445,0.3427,0.3385,0.3426,0.3434,0.3393,0.3417,0.3607,0.3739,0.3958,0.4082,0.4235,0.427,0.4109,0.3924,0.3991,0.3696,0.3618,0.4166,0.4038,0.3926,0.3926,0.3926,0.3926,0.3926,0.3926,0.342,0.3375,0.3352,0.3254,0.3232,0.3121,0.3085,0.3058,0.3134,0.3211,0.3324,0.3529,0.3794,0.396,0.3835,0.3744,0.3427,0.3305,0.3271,0.3649,0.3685,0.3719,0.3582,0.3375,0.3375,0.257,0.2564,0.2559]},{"header":{"parameterUnit":"m.s-1","parameterCategory":2,"la1":30.2991,"la2":30.254,"lo1":-89.0895,"lo2":-89.0444,"dy":0.0017,"dx":0.0017,"nx":28,"ny":28,"refTime":"2025-03-08T03:00:00:Z","depth":"0","parameterNumber":3,"parameterNumberName":"V-component_of_CURRENTS"},"data":[0,0,0,0,0,0,0,0,0,0,0,0,0,0,0,0,0,0,0,0,0,0,0,0,0,0,0,0,0,0,0,0,0,0,0,0,0,0,0,0,0,0,0,0,0,0,0,0,0,0,0,0,0,0,0,0,0,0,0.0075,0.0075,0,0.0004,0.0003,0.0002,-0.0056,-0.0057,-0.0057,-0.0058,-0.0172,-0.0174,-0.0177,0,0,0,0,0,0,0,0,0,0,0,0,0,0.0093,0.0093,0.0075,0.0074,0.0074,0.0004,0.0003,0.0002,-0.0056,-0.0057,-0.0057,-0.0058,-0.0171,-0.0174,-0.0177,0,0,0,0,0,0,0,0,0,0,0,0,0,0.0058,0.0093,0.0075,0.0038,0.0034,0.0004,0.0003,0.0001,-0.0056,-0.0057,-0.0057,-0.0058,-0.017,-0.0173,-0.0177,-0.0188,0,0,-0.0189,-0.0191,0,0,0,0,0,0,0,0,0.006,0.0057,0.0044,0.004,0.0036,-0.0017,-0.0033,-0.0064,-0.0056,-0.0024,-0.0058,-0.0058,-0.0122,-0.013,-0.0144,-0.0194,-0.0199,-0.019,-0.0192,-0.0194,-0.0195,0,0,0,0,0,0,0,0.0063,0.006,0.0045,0.0043,0.0038,0.0001,-0.0004,-0.0039,-0.007,-0.0027,-0.0031,-0.0036,-0.0125,-0.014,-0.0147,-0.02,-0.019,-0.0193,-0.0196,-0.0197,-0.0259,-0.0258,0,0,0,0,0,0,0.008,0.0063,0.0047,0.0043,0.0049,0.0002,-0.0004,-0.0,-0.0069,-0.008,-0.0035,-0.0038,-0.0133,-0.0142,-0.0151,-0.0145,-0.0194,-0.0197,-0.02,-0.026,-0.0259,-0.0258,0,0,0,0,0,0,0.0081,0.0079,0.005,0.0052,0.0046,0.0003,0.0007,-0.0001,-0.0015,-0.0075,-0.0086,-0.0039,-0.0134,-0.0146,-0.0172,-0.0151,-0.0199,-0.0203,-0.026,-0.0259,-0.0258,-0.0148,0,0,0,0,0,0,0.0081,0.008,0.0086,0.0054,0.0046,0.0046,0.0008,-0.0002,-0.0016,-0.0021,-0.0082,-0.0093,-0.0135,-0.0165,-0.0176,-0.0157,-0.0206,-0.0261,-0.026,-0.0259,-0.0153,-0.0143,-0.0135,0,0,0,0,0,0.0083,0.0101,0.0087,0.0085,0.0057,0.0047,0.004,0.0005,-0.0015,-0.0011,-0.0053,-0.0091,-0.0165,-0.0168,-0.018,-0.0162,-0.0262,-0.026,-0.0259,-0.0156,-0.0145,-0.0136,0,0,0,0,0,0,0.0114,0.0096,0.008,0.0092,0.0075,0.0038,0.0037,0.0013,-0.0017,-0.0023,-0.0083,-0.0096,-0.0117,-0.0153,-0.0155,-0.0177,-0.022,-0.022,-0.0138,-0.0128,-0.0119,-0.0056,-0.0209,0,0,0,0,0,0.0125,0.0131,0.0107,0.0117,0.0112,0.0075,0.0064,0.0045,0.0015,0.0001,-0.004,-0.0084,-0.012,-0.0133,-0.0175,-0.018,-0.0182,-0.0178,-0.0169,-0.0161,-0.0119,-0.0095,-0.0079,-0.0253,-0.0253,-0.0253,0,0,0.0139,0.0129,0.0133,0.0123,0.0104,0.0111,0.0067,0.0063,0.0071,-0.0006,-0.0011,-0.0061,-0.0118,-0.0128,-0.0139,-0.0153,-0.012,-0.0159,-0.0152,-0.0113,-0.0091,-0.0074,-0.0058,-0.0252,-0.0252,-0.0252,0,0,0.0178,0.0165,0.0184,0.0174,0.0158,0.014,0.0145,0.0116,0.0106,0.0092,0.004,0.0024,-0.0045,-0.0057,-0.008,-0.0044,-0.0083,-0.0078,0.0028,0.005,0.0066,0.008,0.0079,0.0092,-0.0063,-0.0063,-0.0063,0,0.0195,0.0219,0.0188,0.0202,0.0211,0.016,0.0192,0.017,0.0138,0.0162,0.0103,0.0068,-0.0,0.0033,0.0028,-0.0019,-0.0024,-0.0007,0.0066,0.0079,0.0092,0.0088,0.0101,-0.0058,-0.0058,-0.0059,-0.0059,0,0.0246,0.0263,0.0275,0.028,0.0284,0.0302,0.0279,0.0289,0.0263,0.0254,0.0274,0.0199,0.0202,0.0153,0.0089,0.015,0.011,0.0067,0.005,0.0117,0.0106,0.0118,-0.005,-0.0052,-0.0053,-0.0055,0,0,0.0297,0.0312,0.0316,0.0361,0.0335,0.0368,0.038,0.0417,0.0489,0.0422,0.0517,0.0418,0.0407,0.0383,0.0317,0.0315,0.0355,0.0231,0.0229,0.0249,0.0395,0.0341,0.0348,0.0325,0.0328,0.033,0.0346,0,0.0352,0.0426,0.0403,0.0486,0.0537,0.051,0.0555,0.0579,0.0583,0.0656,0.0599,0.0639,0.0486,0.0512,0.0483,0.0398,0.0395,0.0355,0.0312,0.0312,0.0272,0.0364,0.0332,0.0343,0.0357,0.0359,0.0361,0,0.0416,0.0467,0.0565,0.0658,0.0681,0.0723,0.0843,0.0875,0.0931,0.0942,0.0964,0.0916,0.0913,0.0774,0.0689,0.0669,0.0553,0.0465,0.0463,0.0396,0.0282,0.028,0.0363,0.0112,0.0378,0.0377,0.0375,0,0.053,0.059,0.0695,0.0715,0.0795,0.0866,0.0919,0.0986,0.1081,0.1155,0.124,0.1194,0.1208,0.1074,0.0847,0.0789,0.0748,0.0649,0.0497,0.049,0.0451,0.0436,0.0311,0.0618,0.0618,0.0618,0.0618,0,0.0628,0.0724,0.0772,0.0844,0.1024,0.1016,0.1218,0.1261,0.1366,0.1522,0.1424,0.1532,0.1282,0.1203,0.0976,0.0784,0.0852,0.0558,0.0514,0.0482,0.047,0.0237,0.0102,0.0618,0.0618,0.0618,0.0618,0,0.0791,0.079,0.0947,0.1048,0.1096,0.1249,0.1422,0.1554,0.1622,0.1826,0.1866,0.1813,0.17,0.1435,0.1213,0.097,0.0644,0.0688,0.0649,0.0601,0.0208,0.0082,-0.0033,-0.0126,0.0551,0.055,0.0549,0,0.0912,0.0989,0.1136,0.1232,0.1299,0.1489,0.1614,0.1702,0.1829,0.2008,0.2113,0.2066,0.2059,0.1706,0.1265,0.0906,0.0647,0.0619,0.0498,0.0225,0.0052,-0.0037,-0.0114,0.0475,0.0474,0.0473,0.0472,0,0.1147,0.1173,0.1289,0.1464,0.1607,0.1788,0.1954,0.2095,0.2203,0.2362,0.2512,0.2536,0.2195,0.1807,0.1279,0.0995,0.0447,0.0585,0.0332,0.0029,-0.0097,-0.0223,0.0398,0.0463,0.0464,0.0465,0.0465,0.0465,0.1332,0.144,0.1525,0.1698,0.1847,0.2013,0.218,0.2333,0.2553,0.276,0.2774,0.2839,0.225,0.153,0.1138,0.0339,0.0382,0.0089,-0.0027,-0.008,-0.0209,0.0384,0.0373,0.0373,0.0373,0.0374,0.0374,0,0.1496,0.1561,0.1735,0.1903,0.2054,0.21,0.2339,0.2489,0.2726,0.2918,0.3046,0.2774,0.208,0.1355,0.0306,-0.0187,-0.037,-0.0466,-0.0612,-0.0651,-0.0098,-0.0144,-0.0302,-0.0302,-0.0302,-0.0301,-0.0301,-0.0301,0.1583,0.1711,0.1755,0.1997,0.2122,0.2327,0.2454,0.2689,0.2864,0.3066,0.309,0.3083,0.2434,0.0657,-0.0523,-0.0773,-0.1116,-0.118,-0.1315,-0.0993,-0.0951,-0.0911,-0.0987,-0.1319,-0.132,-0.1821,-0.1826,-0.1831]}],[{"header":{"parameterUnit":"m.s-1","parameterCategory":2,"la1":30.2991,"la2":30.254,"lo1":-89.0895,"lo2":-89.0444,"dy":0.0017,"dx":0.0017,"nx":28,"ny":28,"refTime":"2025-03-08T03:00:00:Z","depth":"2","parameterNumber":2,"parameterNumberName":"U-component_of_CURRENTS"},"data":[0,0,0,0,0,0,0,0,0,0,0,0,0,0,0,0,0,0,0,0,0,0,0,0,0,0,0,0,0,0,0,0,0,0,0,0,0,0,0,0,0,0,0,0,0,0,0,0,0,0,0,0,0,0,0,0,0,0,0.2459,0.2459,0,0.2531,0.2532,0.2532,0.2548,0.2547,0.2547,0.2547,0.2588,0.259,0.2591,0,0,0,0,0,0,0,0,0,0,0,0,0,0.2351,0.2352,0.2458,0.246,0.2461,0.2531,0.2532,0.2532,0.2548,0.2547,0.2547,0.2547,0.2588,0.2589,0.2591,0,0,0,0,0,0,0,0,0,0,0,0,0,0.2406,0.2353,0.2458,0.2478,0.2481,0.2531,0.2532,0.2533,0.2548,0.2547,0.2547,0.2546,0.2587,0.2589,0.2591,0.2616,0,0,0.2598,0.2599,0,0,0,0,0,0,0,0,0.2403,0.241,0.2474,0.2477,0.248,0.2531,0.2509,0.256,0.2548,0.252,0.2547,0.2546,0.2568,0.2572,0.2584,0.2618,0.2619,0.2598,0.26,0.26,0.2601,0,0,0,0,0,0,0,0.2399,0.2407,0.2485,0.2475,0.2479,0.2489,0.2496,0.2519,0.2544,0.2523,0.2525,0.2536,0.2569,0.2582,0.2585,0.262,0.2598,0.26,0.2601,0.2602,0.2725,0.2726,0,0,0,0,0,0,0.2394,0.2403,0.2483,0.2488,0.2441,0.2492,0.2499,0.2514,0.2545,0.255,0.2536,0.2536,0.2579,0.2583,0.2587,0.2648,0.26,0.2602,0.2604,0.2723,0.2725,0.2727,0,0,0,0,0,0,0.2391,0.24,0.248,0.2448,0.2459,0.2494,0.251,0.2516,0.2549,0.2556,0.256,0.2567,0.2578,0.2584,0.2622,0.2649,0.2603,0.2605,0.272,0.2723,0.2726,0.2751,0,0,0,0,0,0,0.2388,0.2399,0.2414,0.2448,0.2461,0.2525,0.2511,0.2518,0.2557,0.2558,0.2583,0.2585,0.2578,0.2619,0.2624,0.2651,0.2607,0.2718,0.2722,0.2725,0.2748,0.2755,0.2761,0,0,0,0,0,0.2384,0.2407,0.2415,0.2425,0.2479,0.2527,0.2535,0.2556,0.2559,0.2582,0.2595,0.2585,0.2646,0.2622,0.2628,0.2656,0.2716,0.2721,0.2725,0.2745,0.2754,0.276,0,0,0,0,0,0,0.2373,0.2412,0.2421,0.2456,0.2495,0.253,0.2553,0.2573,0.2604,0.2599,0.2607,0.2611,0.2661,0.266,0.2634,0.2705,0.2681,0.2687,0.2695,0.2703,0.2709,0.2752,0.2609,0,0,0,0,0,0.2377,0.2397,0.2443,0.247,0.2492,0.2529,0.2553,0.2567,0.2596,0.261,0.2624,0.2645,0.2683,0.2692,0.272,0.2753,0.2791,0.2778,0.2785,0.279,0.2831,0.2915,0.2933,0.2742,0.2742,0.2741,0,0,0.2375,0.2403,0.2412,0.2469,0.2497,0.2541,0.2542,0.2581,0.2615,0.2609,0.2653,0.2673,0.2702,0.2741,0.2762,0.274,0.2858,0.2795,0.2799,0.2839,0.2921,0.294,0.2957,0.2745,0.2744,0.2744,0,0,0.2382,0.2414,0.2433,0.2474,0.2523,0.2553,0.2573,0.2616,0.2635,0.2682,0.2691,0.2736,0.2771,0.2802,0.2823,0.2887,0.2898,0.2885,0.2939,0.3018,0.3035,0.305,0.3094,0.3113,0.2876,0.2876,0.2876,0,0.2373,0.242,0.2449,0.2489,0.2527,0.2566,0.2609,0.2642,0.2688,0.2717,0.2699,0.2811,0.2812,0.2903,0.2912,0.2904,0.294,0.2899,0.3027,0.3043,0.3058,0.31,0.3121,0.2877,0.2877,0.2877,0.2877,0,0.241,0.2447,0.2468,0.2531,0.2575,0.2619,0.2671,0.2711,0.2739,0.2773,0.2866,0.289,0.2963,0.2961,0.2951,0.3063,0.3049,0.3031,0.3004,0.3079,0.3118,0.3139,0.288,0.2879,0.2879,0.2878,0,0,0.2378,0.2472,0.2479,0.2521,0.2603,0.2645,0.2709,0.279,0.2862,0.2897,0.2994,0.3048,0.3075,0.3106,0.3111,0.3168,0.327,0.3141,0.3144,0.318,0.3433,0.3328,0.334,0.3271,0.3276,0.328,0.3406,0,0.2398,0.2466,0.2519,0.2601,0.2644,0.2713,0.2792,0.2862,0.2923,0.3019,0.307,0.3165,0.3127,0.3175,0.3228,0.3277,0.3333,0.3237,0.3363,0.3367,0.326,0.3365,0.3087,0.3169,0.3426,0.343,0.3432,0,0.242,0.2464,0.2543,0.2653,0.2685,0.2756,0.2897,0.2964,0.3094,0.3146,0.3244,0.3292,0.3399,0.335,0.3492,0.3433,0.3448,0.347,0.3475,0.3396,0.3303,0.3145,0.3198,0.3468,0.3465,0.3463,0.346,0,0.2396,0.2483,0.2552,0.2591,0.2727,0.2794,0.2869,0.3003,0.3091,0.3237,0.3322,0.3448,0.3531,0.3595,0.3613,0.3574,0.3753,0.3698,0.3626,0.3616,0.3419,0.3385,0.3818,0.3818,0.3818,0.3818,0.3817,0,0.2415,0.247,0.2553,0.2608,0.2709,0.2795,0.2945,0.303,0.3194,0.3303,0.3392,0.3506,0.3602,0.3689,0.3688,0.3724,0.3815,0.3682,0.3666,0.3414,0.338,0.367,0.3651,0.3822,0.3821,0.382,0.3819,0,0.2413,0.2468,0.2559,0.2682,0.2713,0.2794,0.2971,0.3069,0.3226,0.3373,0.3427,0.3595,0.37,0.3762,0.3871,0.3818,0.3858,0.3837,0.3517,0.3461,0.3649,0.3631,0.3804,0.3801,0.38,0.3798,0.3797,0,0.2439,0.2485,0.2588,0.262,0.269,0.2806,0.288,0.306,0.3144,0.3405,0.3447,0.3634,0.3687,0.381,0.3776,0.3783,0.3847,0.3528,0.341,0.3694,0.3661,0.3644,0.3628,0.3147,0.3141,0.3136,0.3131,0,0.2492,0.2531,0.2596,0.2611,0.2686,0.2787,0.2887,0.2943,0.3141,0.3258,0.3387,0.347,0.3607,0.3495,0.3526,0.3485,0.3504,0.342,0.3845,0.3183,0.3082,0.3046,0.3051,0.3084,0.3089,0.3092,0.3095,0.3097,0.2538,0.2544,0.2568,0.2579,0.2673,0.27,0.2709,0.2812,0.2907,0.2985,0.3163,0.3183,0.3259,0.3151,0.3077,0.3041,0.3265,0.3125,0.3139,0.3159,0.305,0.2951,0.2906,0.2909,0.2913,0.2915,0.2918,0,0.2477,0.2458,0.2489,0.2497,0.2524,0.2615,0.2655,0.2606,0.2601,0.2731,0.2791,0.2588,0.2558,0.2653,0.2526,0.2538,0.2487,0.2448,0.2359,0.241,0.2454,0.2305,0.1966,0.1962,0.1959,0.1956,0,0,0.2447,0.2378,0.2329,0.2293,0.2336,0.2332,0.2313,0.2236,0.2265,0.2202,0.2211,0.2389,0.2552,0.2196,0.218,0.2057,0.2205,0.1979,0.275,0.2695,0.2734,0.2862,0.2692,0,0,0,0,0]},{"header":{"parameterUnit":"m.s-1","parameterCategory":2,"la1":30.2991,"la2":30.254,"lo1":-89.0895,"lo2":-89.0444,"dy":0.0017,"dx":0.0017,"nx":28,"ny":28,"refTime":"2025-03-08T03:00:00:Z","depth":"2","parameterNumber":3,"parameterNumberName":"V-component_of_CURRENTS"},"data":[0,0,0,0,0,0,0,0,0,0,0,0,0,0,0,0,0,0,0,0,0,0,0,0,0,0,0,0,0,0,0,0,0,0,0,0,0,0,0,0,0,0,0,0,0,0,0,0,0,0,0,0,0,0,0,0,0,0,-0.0042,-0.0043,0,-0.0093,-0.0094,-0.0095,-0.014,-0.014,-0.014,-0.0141,-0.0238,-0.024,-0.0242,0,0,0,0,0,0,0,0,0,0,0,0,0,-0.0034,-0.0034,-0.0042,-0.0043,-0.0043,-0.0093,-0.0094,-0.0095,-0.0139,-0.014,-0.0141,-0.0141,-0.0237,-0.024,-0.0243,0,0,0,0,0,0,0,0,0,0,0,0,0,-0.0058,-0.0034,-0.0042,-0.0071,-0.0074,-0.0093,-0.0094,-0.0095,-0.0139,-0.014,-0.0141,-0.0141,-0.0236,-0.024,-0.0243,-0.0251,0,0,-0.0253,-0.0254,0,0,0,0,0,0,0,0,-0.0056,-0.0058,-0.0066,-0.0069,-0.0072,-0.011,-0.0127,-0.0149,-0.0139,-0.0116,-0.0141,-0.0142,-0.0198,-0.0205,-0.0214,-0.0255,-0.0259,-0.0253,-0.0255,-0.0257,-0.0258,0,0,0,0,0,0,0,-0.0055,-0.0056,-0.0063,-0.0066,-0.007,-0.0099,-0.0102,-0.0131,-0.0154,-0.0118,-0.0121,-0.0125,-0.0201,-0.021,-0.0217,-0.0261,-0.0253,-0.0256,-0.0258,-0.0259,-0.0316,-0.0315,0,0,0,0,0,0,-0.0043,-0.0054,-0.0062,-0.0065,-0.0064,-0.0098,-0.0102,-0.0098,-0.0153,-0.0162,-0.0124,-0.0126,-0.0205,-0.0213,-0.022,-0.022,-0.0257,-0.026,-0.0262,-0.0316,-0.0315,-0.0315,0,0,0,0,0,0,-0.0042,-0.0042,-0.006,-0.0061,-0.0065,-0.0097,-0.0092,-0.0099,-0.0109,-0.0157,-0.0167,-0.0128,-0.0205,-0.0216,-0.0239,-0.0225,-0.0261,-0.0264,-0.0317,-0.0316,-0.0315,-0.0229,0,0,0,0,0,0,-0.0041,-0.0042,-0.0037,-0.0059,-0.0064,-0.0062,-0.0092,-0.0099,-0.011,-0.0114,-0.0164,-0.0173,-0.0207,-0.0233,-0.0242,-0.023,-0.0267,-0.0317,-0.0316,-0.0315,-0.0232,-0.0225,-0.0219,0,0,0,0,0,-0.0041,-0.0025,-0.0037,-0.0038,-0.0056,-0.0062,-0.0066,-0.0093,-0.0109,-0.0106,-0.014,-0.0172,-0.0234,-0.0235,-0.0246,-0.0235,-0.0318,-0.0317,-0.0315,-0.0235,-0.0227,-0.022,0,0,0,0,0,0,-0.0019,-0.0029,-0.0042,-0.003,-0.0043,-0.0069,-0.0069,-0.0087,-0.0111,-0.0116,-0.0165,-0.0176,-0.0194,-0.0225,-0.0226,-0.0249,-0.0282,-0.0282,-0.0217,-0.021,-0.0203,-0.0181,-0.027,0,0,0,0,0,-0.0011,-0.0003,-0.002,-0.0011,-0.0015,-0.0042,-0.005,-0.0064,-0.0087,-0.0098,-0.0133,-0.0169,-0.0197,-0.0211,-0.0244,-0.0253,-0.0283,-0.0254,-0.0247,-0.0241,-0.023,-0.0256,-0.025,-0.0311,-0.0311,-0.0311,0,0,-0.0002,-0.0005,-0.0002,-0.0006,-0.002,-0.0011,-0.0048,-0.005,-0.0042,-0.0105,-0.0109,-0.015,-0.0196,-0.0207,-0.0218,-0.023,-0.0242,-0.024,-0.0234,-0.0226,-0.0254,-0.0248,-0.0242,-0.0311,-0.0311,-0.0311,0,0,0.0032,0.0021,0.0041,0.0036,0.0025,0.0012,0.0015,-0.0006,-0.0016,-0.0026,-0.0069,-0.0094,-0.014,-0.0162,-0.0181,-0.0158,-0.021,-0.0175,-0.0119,-0.0144,-0.0138,-0.0134,-0.0171,-0.0171,-0.0167,-0.0167,-0.0167,0,0.0043,0.0068,0.0045,0.0063,0.0067,0.0029,0.0053,0.0039,0.0013,0.0013,-0.0017,-0.0071,-0.0115,-0.0118,-0.0114,-0.0141,-0.0171,-0.0143,-0.0133,-0.013,-0.0127,-0.0166,-0.0167,-0.0163,-0.0163,-0.0164,-0.0164,0,0.0092,0.0109,0.0121,0.0133,0.0133,0.0148,0.013,0.0129,0.0106,0.0088,0.0073,0.0017,-0.001,-0.0032,-0.007,-0.0067,-0.01,-0.0124,-0.0148,-0.0115,-0.0159,-0.0162,-0.0157,-0.0158,-0.0159,-0.016,0,0,0.0127,0.0153,0.0156,0.0181,0.0174,0.0188,0.0199,0.0206,0.0227,0.0181,0.0202,0.014,0.0107,0.0083,0.0035,0.0009,-0.0007,-0.0045,-0.0048,-0.0073,-0.0072,-0.0118,-0.0126,-0.003,-0.003,-0.003,-0.0113,0,0.0172,0.0232,0.0226,0.0281,0.0311,0.0288,0.0308,0.0304,0.0289,0.0297,0.0237,0.0229,0.0153,0.0146,0.0108,0.0025,-0.0009,0.0017,-0.0108,-0.0112,-0.0149,-0.0128,-0.0103,-0.0176,-0.0115,-0.0116,-0.0116,0,0.022,0.0258,0.0323,0.0372,0.0383,0.0406,0.0442,0.0455,0.0443,0.0433,0.0408,0.0357,0.0314,0.0246,0.0126,0.0145,0.0045,-0.0028,-0.0034,-0.0106,-0.0162,-0.02,-0.0183,-0.0121,-0.0121,-0.012,-0.012,0,0.0269,0.0326,0.0388,0.0401,0.0443,0.0472,0.0491,0.0496,0.0524,0.0523,0.0544,0.047,0.0455,0.0324,0.0158,0.0146,0.0016,-0.0018,-0.0155,-0.016,-0.0177,-0.0184,-0.0102,-0.0102,-0.0102,-0.0101,-0.0101,0,0.0321,0.037,0.0419,0.0455,0.0532,0.0535,0.0606,0.0616,0.0639,0.0679,0.0622,0.0647,0.0475,0.0375,0.0202,0.0016,0.0048,-0.014,-0.0179,-0.0149,-0.0152,-0.0135,-0.0137,-0.0105,-0.0104,-0.0103,-0.0103,0,0.0356,0.0389,0.0467,0.0532,0.0558,0.061,0.0681,0.0722,0.075,0.0805,0.0812,0.0782,0.0661,0.0462,0.0256,0.0093,-0.0096,-0.0174,-0.0136,-0.0169,-0.0269,-0.0266,-0.0323,-0.0325,-0.0327,-0.0328,-0.0329,0,0.0377,0.0422,0.052,0.0562,0.0593,0.0671,0.0715,0.0767,0.0813,0.0885,0.0913,0.0852,0.0803,0.0498,0.0204,-0.0097,-0.0123,-0.027,-0.029,-0.0256,-0.0289,-0.0283,-0.0278,-0.0284,-0.0284,-0.0285,-0.0286,0,0.0405,0.044,0.0497,0.0592,0.0657,0.0741,0.0814,0.0886,0.0942,0.1021,0.1089,0.1069,0.0799,0.0534,0.0138,-0.0069,-0.0222,-0.0294,-0.0255,-0.0233,-0.0227,-0.0256,-0.0251,-0.0292,-0.0291,-0.029,-0.029,-0.029,0.0403,0.0443,0.0511,0.0613,0.0692,0.0792,0.0889,0.0986,0.1111,0.1235,0.1195,0.1197,0.0883,0.0405,0.0061,-0.0279,-0.0272,-0.0389,-0.0384,-0.0378,-0.036,-0.0358,-0.0444,-0.0445,-0.0445,-0.0445,-0.0445,0,0.0376,0.0427,0.0518,0.0639,0.0747,0.0784,0.0936,0.1048,0.1235,0.1323,0.1387,0.1104,0.0803,0.0456,-0.0053,-0.0378,-0.0389,-0.0469,-0.0401,-0.0393,-0.0387,-0.0367,-0.0455,-0.0455,-0.0456,-0.0457,0,0,0.0352,0.042,0.0493,0.0664,0.0755,0.0904,0.1013,0.1193,0.1319,0.1441,0.1459,0.1372,0.0934,0.0568,0.0132,-0.0145,-0.0192,-0.0208,-0.017,-0.0032,-0.0021,-0.032,-0.0278,0,0,0,0,0]}],[{"header":{"parameterUnit":"m.s-1","parameterCategory":2,"la1":30.2991,"la2":30.254,"lo1":-89.0895,"lo2":-89.0444,"dy":0.0017,"dx":0.0017,"nx":28,"ny":28,"refTime":"2025-03-08T03:00:00:Z","depth":"4","parameterNumber":2,"parameterNumberName":"U-component_of_CURRENTS"},"data":[0,0,0,0,0,0,0,0,0,0,0,0,0,0,0,0,0,0,0,0,0,0,0,0,0,0,0,0,0,0,0,0,0,0,0,0,0,0,0,0,0,0,0,0,0,0,0,0,0,0,0,0,0,0,0,0,0,0,0.1457,0.1458,0,0.1523,0.1524,0.1524,0.1577,0.1577,0.1578,0.1579,0.1654,0.1655,0.1657,0,0,0,0,0,0,0,0,0,0,0,0,0,0.1378,0.1379,0.1457,0.1458,0.1459,0.1523,0.1524,0.1524,0.1577,0.1578,0.1578,0.1579,0.1654,0.1655,0.1657,0,0,0,0,0,0,0,0,0,0,0,0,0,0.1423,0.138,0.1457,0.1494,0.1498,0.1523,0.1524,0.1524,0.1576,0.1578,0.1579,0.158,0.1653,0.1655,0.1657,0.1648,0,0,0.1663,0.1664,0,0,0,0,0,0,0,0,0.1421,0.1426,0.1488,0.1492,0.1497,0.1544,0.1523,0.1567,0.1576,0.1545,0.1579,0.158,0.1619,0.1624,0.1631,0.1652,0.1655,0.1663,0.1665,0.1665,0.1666,0,0,0,0,0,0,0,0.1417,0.1423,0.1481,0.1489,0.1494,0.1508,0.1516,0.1532,0.1574,0.1548,0.1552,0.1562,0.1621,0.1629,0.1633,0.1656,0.1663,0.1665,0.1666,0.1667,0.1778,0.1779,0,0,0,0,0,0,0.1412,0.142,0.1479,0.1484,0.1462,0.1509,0.1517,0.1526,0.1574,0.1582,0.1561,0.1564,0.1625,0.1631,0.1636,0.1726,0.1665,0.1667,0.1669,0.1776,0.1778,0.178,0,0,0,0,0,0,0.141,0.1416,0.1477,0.1455,0.1464,0.1509,0.1519,0.1527,0.1568,0.1584,0.1593,0.1598,0.1626,0.1633,0.168,0.1726,0.1668,0.167,0.1774,0.1777,0.1779,0.1845,0,0,0,0,0,0,0.1407,0.1415,0.1432,0.1455,0.1465,0.151,0.1519,0.1528,0.1571,0.1577,0.1618,0.1624,0.1627,0.1678,0.1682,0.1728,0.1672,0.1772,0.1775,0.1778,0.184,0.1849,0.1857,0,0,0,0,0,0.1404,0.1416,0.1432,0.144,0.1482,0.1511,0.1518,0.1552,0.1573,0.1593,0.1625,0.1624,0.1702,0.168,0.1686,0.1733,0.177,0.1774,0.1778,0.1837,0.1847,0.1856,0,0,0,0,0,0,0.1392,0.1423,0.1441,0.1464,0.1496,0.1521,0.1548,0.1569,0.161,0.1626,0.1641,0.1649,0.1706,0.1709,0.1685,0.1774,0.1738,0.1743,0.1781,0.1791,0.1799,0.1817,0.1673,0,0,0,0,0,0.1395,0.1418,0.1447,0.1472,0.149,0.1525,0.1547,0.1571,0.1604,0.1625,0.1652,0.1687,0.172,0.1748,0.1767,0.1816,0.1824,0.1852,0.186,0.1867,0.1885,0.194,0.1955,0.1793,0.1793,0.1793,0,0,0.1397,0.1421,0.1434,0.1473,0.1503,0.1531,0.1542,0.1584,0.1622,0.1625,0.1691,0.1712,0.1737,0.1791,0.1818,0.1806,0.1913,0.1872,0.1877,0.1893,0.1946,0.1962,0.1976,0.1795,0.1795,0.1795,0,0,0.1404,0.1438,0.1455,0.1486,0.1535,0.1556,0.1576,0.1618,0.1656,0.1711,0.1728,0.1783,0.1827,0.1862,0.1883,0.195,0.1948,0.1957,0.2025,0.2078,0.2092,0.2105,0.2117,0.2131,0.1971,0.1971,0.1971,0,0.1409,0.1437,0.1466,0.1495,0.1529,0.1572,0.1603,0.1643,0.1699,0.1743,0.1744,0.1844,0.1865,0.1946,0.1977,0.1972,0.1986,0.1984,0.209,0.2102,0.2114,0.2124,0.2138,0.1975,0.1974,0.1974,0.1974,0,0.142,0.1459,0.1478,0.153,0.1566,0.1606,0.1658,0.1709,0.1761,0.1807,0.1902,0.1933,0.2002,0.2017,0.2024,0.2123,0.2099,0.2085,0.2064,0.2135,0.214,0.2153,0.198,0.1979,0.1978,0.1977,0,0,0.139,0.147,0.1481,0.152,0.1594,0.1624,0.1697,0.1778,0.1848,0.1911,0.2001,0.2076,0.2112,0.2139,0.2156,0.2211,0.2301,0.2197,0.2198,0.2208,0.2399,0.2246,0.2244,0.231,0.2313,0.2316,0.2363,0,0.1398,0.1454,0.1497,0.1568,0.1602,0.1675,0.1742,0.1825,0.1905,0.1998,0.2069,0.2155,0.2154,0.2201,0.2259,0.2295,0.2342,0.2288,0.2331,0.2332,0.2187,0.2257,0.2326,0.2372,0.2375,0.2377,0.2379,0,0.1389,0.1433,0.15,0.1601,0.1626,0.1683,0.181,0.1876,0.2013,0.2079,0.2183,0.2238,0.2349,0.2322,0.2435,0.2404,0.2417,0.2429,0.2431,0.2278,0.2203,0.2293,0.2402,0.24,0.2399,0.2397,0.2396,0,0.1343,0.1437,0.1498,0.1533,0.1646,0.171,0.1781,0.1913,0.1984,0.2144,0.2215,0.2339,0.2416,0.2467,0.2508,0.249,0.2598,0.2568,0.2435,0.2422,0.2516,0.2502,0.2642,0.2642,0.2641,0.2641,0.2641,0,0.1324,0.1372,0.1493,0.1526,0.1613,0.1703,0.1812,0.1905,0.2039,0.2122,0.2262,0.2332,0.2464,0.2534,0.2544,0.2527,0.2631,0.2462,0.2437,0.2538,0.2527,0.2524,0.2509,0.2643,0.2643,0.2642,0.2642,0,0.1258,0.1338,0.1407,0.1542,0.1594,0.1656,0.1805,0.1865,0.2023,0.2131,0.2186,0.2365,0.2463,0.2544,0.2631,0.2562,0.2562,0.2522,0.2617,0.2594,0.2338,0.2327,0.2385,0.238,0.2376,0.2373,0.237,0,0.1225,0.1259,0.1401,0.1436,0.1505,0.1612,0.167,0.1836,0.1895,0.2116,0.2144,0.2319,0.2412,0.2412,0.251,0.2521,0.249,0.2463,0.2413,0.2348,0.2319,0.2314,0.2309,0.2364,0.2363,0.2362,0.2361,0,0.1146,0.1211,0.1255,0.1341,0.1414,0.1482,0.1588,0.1629,0.1807,0.197,0.206,0.2135,0.2243,0.2318,0.2351,0.2347,0.247,0.242,0.2428,0.2381,0.2323,0.2297,0.2296,0.2347,0.2349,0.235,0.2351,0,0.1068,0.1076,0.1142,0.1215,0.1284,0.132,0.1407,0.1485,0.1578,0.1833,0.1852,0.204,0.2207,0.2227,0.2247,0.2251,0.2221,0.2137,0.2159,0.2175,0.2088,0.1982,0.1896,0,0,0,0,0,0.0971,0.0962,0.1008,0.1063,0.1127,0.1188,0.1321,0.1412,0.1609,0.1617,0.1735,0.1823,0.1915,0.2015,0.1979,0.2152,0.2218,0.21,0.2128,0.227,0.2286,0.2204,0,0,0,0,0,0,0.0891,0.0903,0.0949,0.0922,0.0943,0.1002,0.1089,0.123,0.1257,0.1471,0.1536,0.1696,0.1814,0.1908,0.1937,0.1965,0.1941,0.2219,0.2213,0.226,0.2275,0.2288,0.221,0,0,0,0,0]},{"header":{"parameterUnit":"m.s-1","parameterCategory":2,"la1":30.2991,"la2":30.254,"lo1":-89.0895,"lo2":-89.0444,"dy":0.0017,"dx":0.0017,"nx":28,"ny":28,"refTime":"2025-03-08T03:00:00:Z","depth":"4","parameterNumber":3,"parameterNumberName":"V-component_of_CURRENTS"},"data":[0,0,0,0,0,0,0,0,0,0,0,0,0,0,0,0,0,0,0,0,0,0,0,0,0,0,0,0,0,0,0,0,0,0,0,0,0,0,0,0,0,0,0,0,0,0,0,0,0,0,0,0,0,0,0,0,0,0,0.0027,0.0027,0,-0.0001,-0.0002,-0.0002,-0.0033,-0.0034,-0.0034,-0.0034,-0.0093,-0.0094,-0.0095,0,0,0,0,0,0,0,0,0,0,0,0,0,0.0023,0.0024,0.0028,0.0027,0.0027,-0.0001,-0.0002,-0.0002,-0.0033,-0.0034,-0.0034,-0.0035,-0.0093,-0.0094,-0.0096,0,0,0,0,0,0,0,0,0,0,0,0,0,0.0012,0.0024,0.0028,0.0009,0.0007,-0.0001,-0.0002,-0.0002,-0.0033,-0.0034,-0.0034,-0.0035,-0.0092,-0.0094,-0.0096,-0.0096,0,0,-0.0101,-0.0102,0,0,0,0,0,0,0,0,0.0013,0.0012,0.0012,0.001,0.0008,-0.0014,-0.0025,-0.0035,-0.0033,-0.0019,-0.0034,-0.0035,-0.0068,-0.0072,-0.0077,-0.0099,-0.0101,-0.0101,-0.0103,-0.0103,-0.0104,0,0,0,0,0,0,0,0.0014,0.0013,0.0015,0.0011,0.0009,-0.0009,-0.0011,-0.0027,-0.0041,-0.002,-0.0022,-0.0024,-0.007,-0.0075,-0.0079,-0.0102,-0.0101,-0.0103,-0.0104,-0.0105,-0.0135,-0.0135,0,0,0,0,0,0,0.0021,0.0014,0.0016,0.0014,0.001,-0.0009,-0.0011,-0.0007,-0.0041,-0.0046,-0.0023,-0.0025,-0.0072,-0.0077,-0.0081,-0.0081,-0.0103,-0.0105,-0.0106,-0.0135,-0.0135,-0.0135,0,0,0,0,0,0,0.0022,0.0022,0.0017,0.0014,0.0012,-0.0008,-0.0003,-0.0007,-0.0013,-0.0043,-0.0049,-0.0025,-0.0072,-0.0078,-0.009,-0.0083,-0.0106,-0.0108,-0.0136,-0.0135,-0.0135,-0.0082,0,0,0,0,0,0,0.0022,0.0023,0.0027,0.0015,0.0013,0.0019,-0.0003,-0.0007,-0.0013,-0.0016,-0.0046,-0.0052,-0.0073,-0.0087,-0.0092,-0.0086,-0.0109,-0.0136,-0.0135,-0.0135,-0.0084,-0.008,-0.0076,0,0,0,0,0,0.0022,0.0035,0.0027,0.0027,0.002,0.002,0.0017,-0.0,-0.0012,-0.0009,-0.003,-0.0051,-0.0087,-0.0088,-0.0094,-0.0089,-0.0136,-0.0136,-0.0135,-0.0086,-0.0081,-0.0076,0,0,0,0,0,0,0.0036,0.0033,0.0024,0.0036,0.0029,0.0015,0.0016,0.0004,-0.001,-0.0014,-0.0045,-0.0051,-0.006,-0.0081,-0.0081,-0.0096,-0.0116,-0.0117,-0.0077,-0.0072,-0.0069,-0.0065,-0.011,0,0,0,0,0,0.0042,0.0051,0.0042,0.0051,0.0049,0.0032,0.0029,0.002,0.0006,-0.0,-0.0022,-0.0045,-0.0061,-0.0071,-0.0088,-0.0095,-0.0132,-0.0097,-0.0093,-0.0089,-0.0091,-0.0138,-0.0139,-0.0132,-0.0132,-0.0132,0,0,0.0049,0.0049,0.0053,0.0054,0.0046,0.0056,0.0029,0.003,0.0037,-0.0004,-0.0005,-0.003,-0.0059,-0.0065,-0.0071,-0.0083,-0.011,-0.0088,-0.0085,-0.0089,-0.0138,-0.0138,-0.0139,-0.0132,-0.0132,-0.0132,0,0,0.0074,0.0069,0.0086,0.0085,0.0081,0.0073,0.0076,0.0064,0.0055,0.0053,0.0024,0.0003,-0.0018,-0.0041,-0.0054,-0.0039,-0.0086,-0.0044,-0.0023,-0.0069,-0.007,-0.0071,-0.0117,-0.0123,-0.0044,-0.0044,-0.0044,0,0.0082,0.0104,0.009,0.0107,0.0111,0.0085,0.0105,0.0096,0.0081,0.0073,0.006,0.0015,-0.0007,-0.0026,-0.0019,-0.003,-0.0065,-0.0037,-0.0064,-0.0066,-0.0068,-0.0115,-0.0123,-0.0041,-0.0042,-0.0042,-0.0042,0,0.0121,0.0136,0.0147,0.016,0.0163,0.0175,0.0164,0.0159,0.0143,0.0127,0.0103,0.0065,0.0035,0.0026,0.001,-0.0015,-0.0038,-0.0051,-0.0075,-0.0066,-0.0116,-0.0124,-0.0038,-0.0039,-0.0039,-0.004,0,0,0.014,0.017,0.0172,0.0188,0.0193,0.02,0.0208,0.0204,0.0201,0.0172,0.016,0.0126,0.0092,0.0074,0.0041,0.0001,-0.004,-0.0027,-0.003,-0.0071,-0.0145,-0.0136,-0.0145,-0.006,-0.0061,-0.0062,-0.0173,0,0.0173,0.0219,0.0224,0.0262,0.0282,0.0266,0.0275,0.0264,0.0243,0.0224,0.0169,0.0148,0.0115,0.0098,0.0053,-0.0014,-0.0061,-0.0009,-0.015,-0.0155,-0.0146,-0.0153,-0.0066,-0.018,-0.0182,-0.0184,-0.0185,0,0.0207,0.0235,0.0283,0.0311,0.0317,0.0334,0.0333,0.0339,0.0302,0.0283,0.024,0.0196,0.0139,0.0109,-0.0017,0.0017,-0.0058,-0.0118,-0.0124,-0.014,-0.016,-0.0193,-0.0201,-0.0199,-0.0198,-0.0197,-0.0196,0,0.0223,0.0272,0.0313,0.0325,0.0351,0.0364,0.0373,0.0353,0.0356,0.0318,0.0308,0.0226,0.0189,0.0082,-0.0032,-0.0029,-0.0178,-0.0191,-0.026,-0.0261,-0.026,-0.0258,-0.0288,-0.0288,-0.0288,-0.0287,-0.0287,0,0.0251,0.028,0.0326,0.0346,0.0386,0.0393,0.0417,0.0409,0.0396,0.0404,0.034,0.0319,0.018,0.0084,-0.0029,-0.0167,-0.0179,-0.0262,-0.0289,-0.0235,-0.0228,-0.0267,-0.0263,-0.0291,-0.029,-0.029,-0.0289,0,0.0249,0.0285,0.0329,0.0374,0.0395,0.0417,0.0456,0.0472,0.0457,0.0464,0.0457,0.0378,0.026,0.0113,-0.0063,-0.0152,-0.0291,-0.0339,-0.0271,-0.0292,-0.0349,-0.0341,-0.0434,-0.0435,-0.0435,-0.0436,-0.0436,0,0.0247,0.0275,0.0345,0.0383,0.0407,0.045,0.0486,0.0497,0.0524,0.0503,0.0514,0.0408,0.0341,0.0105,-0.0059,-0.0285,-0.0313,-0.0391,-0.0372,-0.0347,-0.0365,-0.0356,-0.0348,-0.0437,-0.0437,-0.0437,-0.0437,0,0.0239,0.0267,0.031,0.0397,0.0453,0.051,0.0568,0.0591,0.0611,0.0592,0.0566,0.0443,0.0309,0.0122,-0.0054,-0.0216,-0.0343,-0.0397,-0.0397,-0.038,-0.0352,-0.0367,-0.0358,-0.0439,-0.0439,-0.0438,-0.0438,0,0.0232,0.0262,0.034,0.0416,0.0488,0.0569,0.0589,0.0637,0.0658,0.0645,0.063,0.0482,0.039,0.0156,-0.0007,-0.0163,-0.0206,-0.0256,-0.0264,-0.0264,-0.0178,-0.0116,-0.0157,0,0,0,0,0,0.024,0.03,0.0361,0.0462,0.0531,0.0586,0.0655,0.0673,0.0693,0.0689,0.0664,0.0544,0.0308,0.0201,0.0048,-0.0033,-0.0245,-0.022,-0.0309,-0.0448,-0.0446,-0.0373,0,0,0,0,0,0,0.0256,0.0325,0.0369,0.049,0.0563,0.0655,0.0702,0.0714,0.0715,0.0702,0.0584,0.0508,0.0281,0.0404,0.0049,-0.0003,-0.0081,-0.0336,-0.0339,-0.0449,-0.0448,-0.0446,-0.037,0,0,0,0,0]}]]